Regional Weather Roundup
Issued by NWS Goodland, KS

Home | Current Version | Previous Version | Text Only | Print | Product List | Glossary Off
Versions: 1 2 3 4 5 6 7 8 9 10 11 12 13 14 15 16 17 18 19 20 21 22 23 24 25 26 27 28 29 30 31 32 33 34 35 36 37 38 39 40 41 42 43 44 45 46 47 48 49 50

000
ASUS43 KGLD 022159
RWRGLD

GOODLAND FORECAST AREA HOURLY WEATHER ROUNDUP
NATIONAL WEATHER SERVICE GOODLAND KS
400 PM MDT WED SEP 02 2015

...OFFICIAL OBSERVATIONS...

CITY           SKY/WX    TMP DP  RH WIND       PRES   REMARKS
GOODLAND KS    SUNNY     97  44  16 CALM      29.89F
HILL CITY KS   SUNNY    101  55  21 S9        29.81F
IMPERIAL NEB   MOSUNNY   94  52  24 SE7       29.87F
MCCOOK NEB     SUNNY     99  55  23 SE8       29.83F
AKRON CO       SUNNY     91  38  15 SW5       29.97F
BURLINGTON CO  MOSUNNY   93  46  19 SW3       29.94F
LIMON CO       SUNNY     87  38  17 NE7       30.04F
$$

...UNOFFICIAL OBSERVATIONS...

CITY           SKY/WX    TMP DP  RH WIND       PRES   REMARKS
COLBY KS       SUNNY     99  57  25 SW3       29.87F
GOVE KS          N/A     98  32  10 MISG        N/A
LENORA KS        N/A     97  32  10 MISG        N/A
NORTON KS      SUNNY     95  48  20 S12       29.81F
TRENTON NEB      N/A     94  32  11 E12         N/A
YUMA CO          N/A     94  45  18 CALM        N/A
$$


USA.gov is the U.S. government's official web portal to all federal, state and local government web resources and services.